Weather History for Alexandria, LA

Change the Weather History Date:

Wednesday, January 30, 2002

  Actual Average Record
Temperature  
Mean Temperature 73 °F 49 °F  
Max Temperature 82 °F 60 °F 82 °F (2002)
Min Temperature 64 °F 39 °F 15 °F (1966)
Degree Days  
Heating Degree Days 0 16  
Month to date heating degree days 480  
Since 1 July heating degree days 1269  
Cooling Degree Days 8    
Growing Degree Days 23 (Base 50)    
Moisture  
Dew Point 67 °F    
Average Humidity 90    
Maximum Humidity 100    
Minimum Humidity 60    
Precipitation  
Precipitation 0.00 in 0.22 in 4.60 in (1999)
Month to date precipitation 5.01  
Year to date precipitation 5.01  
Snow  
Snow 0.00 in - 6.70 in (1949)
Month to date snowfall  
Since 1 July snowfall  
Snow Depth -    
Sea Level Pressure  
Sea Level Pressure 29.98 in    
Wind  
Wind Speed 8 mph (SSE)    
Max Wind Speed 17 mph    
Max Gust Speed 25 mph    
Visibility 7 miles    
Events      
T = Trace of Precipitation, MM = Missing Value Source: NWS Daily Summary

Daily Weather History Graph

Daily Weather History Graph

Search for Another Location

Airport:

Trip Planner

Search our weather history database for the weather conditions in past years. The results will help you decide how hot, cold, wet, or windy it might be!

Date:

Astronomy

Jan. 30, 2002 Rise Set
Actual Time 7:03 AM CST 5:43 PM CST
Civil Twilight 6:38 AM CST 6:09 PM CST
Nautical Twilight 6:09 AM CST 6:38 PM CST
Astronomical Twilight 5:40 AM CST 7:06 PM CST
Moon 7:57 PM CST (1/30) 8:36 AM CST (1/30)
Length of Visible Light 11h 30m
Length of Day
10h 39m
Waning Gibbous, 95% of the Moon is Illuminated
Jan 30
Waning Gibbous
Feb 4
Last Quarter
Feb 12
New
Feb 20
First Quarter
Feb 27
Full

Hourly Weather History & Observations

Time (CST) Temp. Heat Index Dew Point Humidity Pressure Visibility Wind Dir Wind Speed Gust Speed Precip Events Conditions
12:53 AM 66.9 °F - 66.9 °F 100% 30.01 in 9.0 mi SE 5.8 mph - N/A   Overcast
1:00 AM 66.2 °F - 66.2 °F 100% 30.00 in 7.0 mi SE 4.6 mph - N/A   Mostly Cloudy
1:07 AM 66.2 °F - 66.2 °F 100% 30.00 in 7.0 mi SE 4.6 mph - N/A   Scattered Clouds
1:32 AM 66.2 °F - 66.2 °F 100% 30.00 in 6.0 mi SSE 4.6 mph - N/A   Mostly Cloudy
1:53 AM 64.9 °F - 64.9 °F 100% 30.01 in 7.0 mi SE 5.8 mph - N/A   Mostly Cloudy
2:04 AM 64.4 °F - 64.4 °F 100% 30.00 in 4.0 mi SE 4.6 mph - N/A   Mostly Cloudy
2:15 AM 66.2 °F - 66.2 °F 100% 30.00 in 5.0 mi SE 3.5 mph - N/A   Partly Cloudy
2:29 AM 66.2 °F - 66.2 °F 100% 30.00 in 6.0 mi SSE 4.6 mph - N/A   Mostly Cloudy
2:53 AM 66.0 °F - 66.0 °F 100% 30.01 in 6.0 mi SE 4.6 mph - N/A   Mostly Cloudy
3:53 AM 66.9 °F - 66.0 °F 97% 30.00 in 8.0 mi SE 9.2 mph - N/A   Partly Cloudy
4:24 AM 66.2 °F - 66.2 °F 100% 29.98 in 8.0 mi SSE 9.2 mph - N/A   Mostly Cloudy
4:53 AM 66.9 °F - 66.0 °F 97% 29.99 in 7.0 mi SE 8.1 mph - N/A   Mostly Cloudy
5:53 AM 64.9 °F - 64.9 °F 100% 29.99 in 4.0 mi SE 6.9 mph - N/A   Mostly Cloudy
6:08 AM 64.4 °F - 64.4 °F 100% 29.99 in 4.0 mi SE 6.9 mph - N/A   Scattered Clouds
6:18 AM 66.2 °F - 66.2 °F 100% 29.99 in 4.0 mi SE 6.9 mph - N/A   Mostly Cloudy
6:28 AM 66.2 °F - 66.2 °F 100% 29.99 in 4.0 mi SE 6.9 mph - N/A   Mostly Cloudy
6:53 AM 66.9 °F - 66.9 °F 100% 30.00 in 4.0 mi SSE 6.9 mph - N/A   Overcast
7:17 AM 66.2 °F - 66.2 °F 100% 30.00 in 4.0 mi SSE 5.8 mph - N/A   Overcast
7:53 AM 68.0 °F - 68.0 °F 100% 30.02 in 4.0 mi SE 6.9 mph - N/A   Overcast
8:11 AM 68.0 °F - 68.0 °F 100% 30.01 in 3.0 mi SE 8.1 mph - N/A   Overcast
8:36 AM 69.8 °F - 69.8 °F 100% 30.02 in 4.0 mi SE 9.2 mph - N/A   Mostly Cloudy
8:53 AM 70.0 °F - 69.1 °F 97% 30.03 in 5.0 mi SE 9.2 mph - N/A   Mostly Cloudy
8:56 AM 71.6 °F - 69.8 °F 94% 30.02 in 5.0 mi SE 10.4 mph - N/A   Mostly Cloudy
9:20 AM 71.6 °F - 69.8 °F 94% 30.02 in 7.0 mi SSE 10.4 mph - N/A   Mostly Cloudy
9:31 AM 71.6 °F - 69.8 °F 94% 30.03 in 7.0 mi SE 12.7 mph - N/A   Mostly Cloudy
9:44 AM 73.4 °F - 69.8 °F 88% 30.03 in 8.0 mi SE 12.7 mph - N/A   Scattered Clouds
9:53 AM 73.0 °F - 69.1 °F 87% 30.04 in 9.0 mi SE 12.7 mph - N/A   Mostly Cloudy
10:53 AM 75.0 °F - 70.0 °F 84% 30.03 in 10.0 mi SE 12.7 mph - N/A   Overcast
11:53 AM 77.0 °F - 69.1 °F 76% 29.99 in 10.0 mi SSE 9.2 mph 19.6 mph N/A   Overcast
12:01 PM 77.0 °F - 69.8 °F 78% 29.98 in 10.0 mi SSE 11.5 mph - N/A   Overcast
12:30 PM 78.8 °F - 68.0 °F 69% 29.96 in 10.0 mi South 15.0 mph - N/A   Overcast
12:53 PM 80.1 °F 82.7 °F 68.0 °F 67% 29.96 in 10.0 mi South 11.5 mph - N/A   Mostly Cloudy
1:53 PM 81.0 °F 83.8 °F 68.0 °F 65% 29.94 in 10.0 mi SSE 11.5 mph 18.4 mph N/A   Mostly Cloudy
2:53 PM 82.0 °F 84.5 °F 66.9 °F 60% 29.92 in 10.0 mi South 16.1 mph 25.3 mph N/A   Partly Cloudy
3:53 PM 80.1 °F 82.3 °F 66.9 °F 64% 29.91 in 10.0 mi South 17.3 mph 23.0 mph N/A   Partly Cloudy
4:53 PM 79.0 °F - 64.9 °F 62% 29.92 in 10.0 mi South 9.2 mph 18.4 mph N/A   Partly Cloudy
5:53 PM 75.9 °F - 66.0 °F 71% 29.92 in 10.0 mi South 13.8 mph - N/A   Clear
6:53 PM 75.0 °F - 66.9 °F 76% 29.92 in 10.0 mi SSE 9.2 mph - N/A   Partly Cloudy
7:53 PM 73.0 °F - 69.1 °F 87% 29.93 in 10.0 mi SSE 11.5 mph - N/A   Clear
8:46 PM 73.4 °F - 69.8 °F 88% 29.93 in 10.0 mi South 10.4 mph - N/A   Mostly Cloudy
8:53 PM 73.0 °F - 69.1 °F 87% 29.94 in 10.0 mi South 11.5 mph - N/A   Mostly Cloudy
10:53 PM 72.0 °F - 69.1 °F 91% 29.95 in 10.0 mi SSE 9.2 mph - N/A   Overcast
11:53 PM 72.0 °F - 69.1 °F 91% 29.95 in 10.0 mi SSE 8.1 mph - N/A   Overcast